Hovedside
METAR-TAF:

METAR-TAF

Lufthavner :

Sankt Michel lufthavn

Sankt Michel, Finland

breddegrad: 61-44N, lengdegrad: 027-18E, høyde over havet: 138 m

Gjeldene værobservasjon

Denne rapporten ble laget for 6 minutter siden, klokken 14:20 UTC
Vind 8 kt fra Øst, skiftende mellom Nordøst og Sørøst
Temperatur 27°C
Luftfuktighet 37%
Trykk 1015 hPa
Sikt 10 km eller mer
ingen skyer under 1500 m og ingen bygeskyer

METAR: EFMI 181420Z AUTO 09008KT 040V130 CAVOK 27/11 Q1015

Tid: 17:26 (14:26 UTC)


TAF: fraværende

Værobservasjoner og værvarsel for over 4000 flyplasser (METAR- og TAF-rapporter).

Tilgjengelige stasjoner er representert av de røde og gule prikkene på kartet.

Hold musepekeren over prikken for å se navnet på stasjonen.

Klikk så for å se værobservasjoner og -varsler.

For å forandre kartet kan du klikke på den grønne knappen med svart kryss for å zoome inn, på den grønne knappen med strek for å zoome ut, eller på de grønne pilene for å se tilstøtende kart.


METAR-TAF: